CZ-3C R/B, 44232

Orbit data source: Space-Track

CZ-3C R/B, 44232 is space debris in HEO originally from a launch on Fri, 17 May 2019 UTC launched from the Xichang Space Center, China (XSC). Debris objects in space refer to the collection of defunct objects orbiting the Earth. Examples of debris include non-operational satellites, rocket bodies, and fragments generated from explosions, collisions, or faulty payload assembly.

Loading next visibility...
Identifier
44232, 2019-027B
Orbit
HEO
Last TLE update
20 hours ago
Origin
Manufacturer
CALT
Mission
Spacecraft
Bus & Motor
CZ-3C STAGE 3, Unknown motor
Mass
~2,800 kg wet, ~2,800 kg dry
Launch date (UTC)
2019-05-17 (6 years ago)
Launch vehicle
Unknown
Launch site
Xichang Space Center, China (XSC)
Object type
Payload
Rocket body
Debris
Shape & HBR
Cyl + 1 Nozzle, 12.38 m
Radar Cross Section
32.704 m², Large (>1 m²)

Expand to show TLE details & history

TLE from 20 hours ago
0 CZ-3C R/B
1 44232U 19027B   25128.41324205  .00064166 -26040-6  16641-2 0  9995
2 44232  19.2701 124.9068 6575951 322.6172   6.0883  3.27456306 58877
Epoch: 2025-05-08T09:55Z
Definitive object data (Epoch: 2025-05-08T09:55:04.113Z)
Latitude
-0.00024°
Longitude
109.70267°
Altitude
766.541 km
Speed
9.527 km/s
True Right ascension
08h 19m 48s
True Declination
0° 00' 01"
Sunlit
Object was in daylight at TLE epoch
Visualization TLE readout
Latitude
-0.48316°
Longitude
-69.45036°
Altitude
16,197.063 km
Speed
3.808 km/s
Apparent Right ascension
21h 12m 28s
Apparent Declination
-10° 31' 07"
Sunlit
Object is in daylight
Visualization observer readout
Local Sidereal Time
14:30:26
Azimuth
91.478° ESE
Elevation
-14.755°
Doppler factor
1
Orbital elements
Apogee altitude
25,381.85 km
Perigee altitude
182.437 km
Semi-major axis
19,160.281 km
Eccentricity
0.6575951
Inclination
19.2701°
RAAN
124.9068°
Arg. of periapsis
322.6172°
True anomaly
36.97255°
Mean anomaly
6.0883°
Eccentric anomaly
17.28017°
Mean motion
0.81835 °/min
BSTAR
0.0016641
Orbital period
439.91 mins
Loading maneuver chart data...
Loading SW <> Apogee altitude chart data...
Loading historical data...
Loading historical data...
Loading historical data...
Loading historical data...
Loading historical data...
Loading historical data...
Loading historical data...
Other satellites on launch #27 in the year 2019 (2019-05-17 UTC)

CZ-3C R/B Visibility forecast

Observer location: undefined°, undefined°

Span
Click to sort rows by Start time (UTC) header in descending order
Start Az.
Max El. time (UTC)
Max El. Az.
Max El.
End time (UTC)
End Az.
368 mins2025-05-09 08:22:37.195Z261.183° W2025-05-09 10:04:37.195Z227.372° WSW37.495°2025-05-09 14:30:37.195Z179.944° S
11 mins2025-05-10 06:10:37.195Z244.96° WSW2025-05-10 06:21:37.195Z230.106° WSW32.138°2025-05-10 06:21:37.195Z230.106° WSW
|